This is the latest recevied weather packets stored in our database for station/object WX5RP. If no packets are shown the sender has not sent any weather packets the latest 10 day(s).
| Time | Temp. | Humidity | Pressure | Rain* | Wind** | Luminosity | Snow |
|---|---|---|---|---|---|---|---|
| 1787536816 | 26.67° C | 19% | 1018.8 hPa | 0 mm | - | 26 W/m² | - |
| 1787536216 | 27.22° C | 18% | 1018.7 hPa | 0 mm | - | 27 W/m² | - |
| 1787535615 | 27.22° C | 17% | 1018.8 hPa | 0 mm | - | 44 W/m² | - |
| 1787535016 | 27.22° C | 17% | 1018.8 hPa | 0 mm | - | 46 W/m² | - |
| 1787534415 | 27.22° C | 17% | 1019 hPa | 0 mm | - | 75 W/m² | - |
| 1787533815 | 27.22° C | 21% | 1019.5 hPa | 0 mm | - | 89 W/m² | - |
| 1787533216 | 27.22° C | 19% | 1019.4 hPa | 0 mm | - | 99 W/m² | - |
| 1787532615 | 27.22° C | 20% | 1019.4 hPa | 0 mm | - | 286 W/m² | - |
| 1787532015 | 27.22° C | 19% | 1019.4 hPa | 0 mm | - | 291 W/m² | - |
| 1787531416 | 27.22° C | 19% | 1019.4 hPa | 0 mm | - | 395 W/m² | - |
| 1787530816 | 27.78° C | 23% | 1019.2 hPa | 0 mm | - | 430 W/m² | - |
| 1787530216 | 28.33° C | 20% | 1019.6 hPa | 0 mm | - | 450 W/m² | - |
| 1787529615 | 28.33° C | 17% | 1019.5 hPa | 0 mm | - | 494 W/m² | - |
| 1787529015 | 28.33° C | 18% | 1019.7 hPa | 0 mm | - | 525 W/m² | - |
| 1787528415 | 28.89° C | 17% | 1019.9 hPa | 0 mm | - | 558 W/m² | - |
| 1787527817 | 28.33° C | 21% | 1020 hPa | 0 mm | - | 589 W/m² | - |
| 1787527217 | 28.33° C | 18% | 1020.3 hPa | 0 mm | - | 616 W/m² | - |
| 1787526617 | 27.78° C | 18% | 1019.7 hPa | 0 mm | - | 645 W/m² | - |
| 1787526017 | 28.33° C | 18% | 1020 hPa | 0 mm | - | 674 W/m² | - |
| 1787525417 | 27.78° C | 19% | 1019.7 hPa | 0 mm | - | 699 W/m² | - |
| 1787524820 | 27.78° C | 19% | 1020.4 hPa | 0 mm | - | 724 W/m² | - |
| 1787524217 | 27.78° C | 18% | 1020.4 hPa | 0 mm | - | 750 W/m² | - |
| 1787523617 | 27.78° C | 19% | 1020.9 hPa | 0 mm | - | 778 W/m² | - |
| 1787523017 | 27.78° C | 19% | 1020.8 hPa | 0 mm | - | 797 W/m² | - |
| 1787522417 | 27.22° C | 20% | 1020.5 hPa | 0 mm | - | 815 W/m² | - |
* Rain latest hour (hover to see other rain measurements)
** Current wind speed in m/s (hover to see current wind gust speed)